[[{"header":{"parameterUnit":"m.s-1","parameterCategory":2,"la1":30.2991,"la2":30.254,"lo1":-89.0895,"lo2":-89.0444,"dy":0.0017,"dx":0.0017,"nx":28,"ny":28,"refTime":"2024-06-01T21:00:00:Z","depth":"0","parameterNumber":2,"parameterNumberName":"U-component_of_CURRENTS"},"data":[0,0,0,0,0,0,0,0,0,0,0,0,0,0,0,0,0,0,0,0,0,0,0,0,0,0,0,0,0,0,0,0,0,0,0,0,0,0,0,0,0,0,0,0,0,0,0,0,0,0,0,0,0,0,0,0,0,0,0.1416,0.1416,0,0.141,0.1409,0.1409,0.139,0.139,0.139,0.139,0.1353,0.1352,0.1351,0,0,0,0,0,0,0,0,0,0,0,0,0,0.1381,0.1382,0.1416,0.1416,0.1417,0.141,0.1409,0.1409,0.139,0.139,0.139,0.139,0.1353,0.1352,0.1351,0,0,0,0,0,0,0,0,0,0,0,0,0,0.1384,0.1382,0.1416,0.141,0.1409,0.141,0.1409,0.1409,0.139,0.139,0.139,0.139,0.1353,0.1352,0.1351,0.1342,0,0,0.1346,0.1346,0,0,0,0,0,0,0,0,0.1384,0.1384,0.141,0.141,0.141,0.1404,0.1384,0.1386,0.139,0.1392,0.139,0.139,0.137,0.1367,0.136,0.134,0.1339,0.1346,0.1345,0.1345,0.1344,0,0,0,0,0,0,0,0.1383,0.1384,0.1409,0.1411,0.141,0.1397,0.1397,0.1384,0.1377,0.1392,0.1392,0.1398,0.1369,0.1362,0.1359,0.1338,0.1346,0.1345,0.1344,0.1343,0.1295,0.1294,0,0,0,0,0,0,0.1395,0.1385,0.1409,0.1409,0.1401,0.1398,0.1398,0.1402,0.1378,0.1376,0.1398,0.1398,0.1364,0.1361,0.1358,0.1341,0.1345,0.1343,0.1342,0.1295,0.1295,0.1294,0,0,0,0,0,0,0.1394,0.1397,0.141,0.14,0.1402,0.14,0.1404,0.1402,0.1401,0.1384,0.138,0.14,0.1364,0.136,0.1345,0.134,0.1343,0.1341,0.1296,0.1295,0.1294,0.1312,0,0,0,0,0,0,0.1393,0.1397,0.1402,0.1401,0.1403,0.1419,0.1405,0.1403,0.1407,0.1406,0.1384,0.138,0.1364,0.1347,0.1344,0.1338,0.134,0.1296,0.1295,0.1295,0.1312,0.1312,0.1312,0,0,0,0,0,0.1392,0.1402,0.1402,0.1405,0.141,0.142,0.1419,0.1414,0.1407,0.141,0.1389,0.1381,0.1339,0.1346,0.1342,0.1336,0.1297,0.1296,0.1295,0.1312,0.1312,0.1312,0,0,0,0,0,0,0.1389,0.1401,0.1401,0.1414,0.1421,0.1418,0.1424,0.1419,0.1405,0.1402,0.1379,0.1373,0.1359,0.1344,0.1352,0.1318,0.1316,0.1314,0.133,0.133,0.133,0.1357,0.1339,0,0,0,0,0,0.1392,0.1402,0.1412,0.1422,0.1429,0.1426,0.1429,0.1427,0.1418,0.1412,0.1395,0.1373,0.1351,0.1339,0.1322,0.1306,0.1395,0.1297,0.1297,0.1297,0.1316,0.1445,0.1461,0.1291,0.1291,0.1291,0,0,0.1393,0.1403,0.1407,0.1422,0.1426,0.1436,0.1427,0.1437,0.1433,0.141,0.1396,0.1378,0.1348,0.1327,0.1319,0.1315,0.1401,0.1296,0.1297,0.1315,0.1447,0.1464,0.1479,0.129,0.1291,0.1291,0,0,0.141,0.1412,0.143,0.1438,0.1454,0.1447,0.1454,0.1454,0.1442,0.143,0.1407,0.1388,0.1358,0.1333,0.1316,0.1307,0.1402,0.1299,0.1317,0.1443,0.1459,0.1475,0.1662,0.1694,0.1294,0.1294,0.1294,0,0.1411,0.1437,0.1436,0.1458,0.1463,0.1455,0.147,0.1456,0.1447,0.1438,0.1429,0.1396,0.136,0.1341,0.1327,0.1308,0.1432,0.132,0.1449,0.1466,0.1482,0.1669,0.1704,0.1295,0.1295,0.1295,0.1294,0,0.1444,0.1464,0.1477,0.1495,0.1494,0.151,0.1495,0.1482,0.1464,0.1456,0.1444,0.141,0.1405,0.1369,0.1339,0.1405,0.148,0.1445,0.1461,0.1501,0.1695,0.1731,0.1296,0.1295,0.1295,0.1295,0,0,0.1449,0.1493,0.1498,0.1513,0.1517,0.152,0.15,0.1489,0.15,0.1473,0.1511,0.1427,0.1444,0.1426,0.1399,0.1467,0.1672,0.1507,0.1513,0.1716,0.204,0.205,0.2092,0.1687,0.1692,0.1696,0.2152,0,0.1478,0.1533,0.1532,0.1558,0.1582,0.1553,0.1543,0.1524,0.1517,0.1554,0.1517,0.1555,0.1459,0.1495,0.1538,0.165,0.1762,0.1557,0.195,0.1963,0.1985,0.213,0.2083,0.248,0.2188,0.2194,0.2198,0,0.1511,0.1545,0.1589,0.1603,0.1608,0.1612,0.1602,0.16,0.1619,0.163,0.1651,0.1676,0.1752,0.1688,0.1917,0.1813,0.1936,0.2011,0.2031,0.2057,0.2039,0.238,0.2558,0.2441,0.2255,0.225,0.2246,0,0.1534,0.1573,0.161,0.162,0.1637,0.1631,0.163,0.1627,0.1656,0.1733,0.1819,0.1873,0.1995,0.2108,0.223,0.2134,0.2539,0.2429,0.256,0.2566,0.2608,0.2607,0.2733,0.2633,0.2632,0.2631,0.2629,0,0.1568,0.1594,0.163,0.166,0.1692,0.1677,0.1723,0.1721,0.179,0.1878,0.19,0.2033,0.2119,0.2322,0.238,0.2625,0.2685,0.2632,0.2691,0.2613,0.2607,0.2566,0.2458,0.2648,0.2644,0.2641,0.2638,0,0.1592,0.1621,0.1674,0.1709,0.1719,0.1745,0.1802,0.1837,0.1909,0.2055,0.2118,0.2271,0.2536,0.2636,0.2895,0.2876,0.2992,0.3123,0.3051,0.3088,0.3004,0.2898,0.3035,0.2944,0.336,0.3363,0.3365,0,0.1606,0.1646,0.1725,0.1758,0.1779,0.1824,0.1852,0.1898,0.1962,0.2195,0.2292,0.2591,0.2746,0.3136,0.3219,0.3416,0.3207,0.346,0.3193,0.3055,0.2984,0.279,0.2686,0.3309,0.331,0.3312,0.3313,0,0.1637,0.1679,0.1729,0.1808,0.1852,0.1904,0.1966,0.2037,0.2127,0.2268,0.2499,0.2656,0.3035,0.3207,0.345,0.3522,0.3266,0.3494,0.338,0.2991,0.2769,0.2691,0.2986,0.3327,0.3326,0.3325,0.3324,0.3323,0.1657,0.1702,0.1776,0.1837,0.1889,0.1945,0.1972,0.2059,0.2174,0.234,0.2563,0.2766,0.3081,0.3397,0.3461,0.3522,0.3399,0.3412,0.333,0.3175,0.2947,0.3286,0.3629,0.363,0.363,0.363,0.363,0,0.1658,0.1713,0.1784,0.1846,0.1873,0.1917,0.2001,0.2016,0.2112,0.2325,0.2495,0.2844,0.3049,0.3258,0.3454,0.3363,0.3168,0.3272,0.2973,0.2898,0.3285,0.313,0.3342,0.3342,0.3342,0.3342,0.3342,0.3343,0.166,0.1723,0.1761,0.1795,0.1831,0.1835,0.1866,0.1917,0.2034,0.2231,0.2422,0.2622,0.2966,0.3224,0.3237,0.3163,0.2863,0.2811,0.2707,0.2939,0.2942,0.2945,0.2774,0.2908,0.2907,0.2245,0.224,0.2236]},{"header":{"parameterUnit":"m.s-1","parameterCategory":2,"la1":30.2991,"la2":30.254,"lo1":-89.0895,"lo2":-89.0444,"dy":0.0017,"dx":0.0017,"nx":28,"ny":28,"refTime":"2024-06-01T21:00:00:Z","depth":"0","parameterNumber":3,"parameterNumberName":"V-component_of_CURRENTS"},"data":[0,0,0,0,0,0,0,0,0,0,0,0,0,0,0,0,0,0,0,0,0,0,0,0,0,0,0,0,0,0,0,0,0,0,0,0,0,0,0,0,0,0,0,0,0,0,0,0,0,0,0,0,0,0,0,0,0,0,0.0002,0.0001,0,-0.0078,-0.0079,-0.008,-0.0111,-0.0111,-0.0111,-0.011,-0.0201,-0.0204,-0.0207,0,0,0,0,0,0,0,0,0,0,0,0,0,0.0072,0.0071,0.0002,0.0001,0.0,-0.0077,-0.0079,-0.008,-0.0111,-0.0111,-0.011,-0.011,-0.02,-0.0204,-0.0207,0,0,0,0,0,0,0,0,0,0,0,0,0,0.0021,0.0071,0.0002,-0.0024,-0.0027,-0.0077,-0.0079,-0.008,-0.0111,-0.0111,-0.011,-0.011,-0.0199,-0.0203,-0.0207,-0.0242,0,0,-0.022,-0.0222,0,0,0,0,0,0,0,0,0.0024,0.0018,-0.0019,-0.0022,-0.0026,-0.0083,-0.0087,-0.0135,-0.0111,-0.0081,-0.011,-0.011,-0.0162,-0.017,-0.0187,-0.0246,-0.025,-0.022,-0.0223,-0.0225,-0.0226,0,0,0,0,0,0,0,0.0028,0.0021,-0.0031,-0.002,-0.0024,-0.005,-0.0057,-0.0097,-0.0124,-0.0083,-0.0085,-0.0092,-0.0164,-0.0183,-0.0189,-0.0252,-0.022,-0.0224,-0.0226,-0.0228,-0.0366,-0.0367,0,0,0,0,0,0,0.0042,0.0025,-0.0028,-0.0033,0.0002,-0.0052,-0.0059,-0.0066,-0.0124,-0.0132,-0.0093,-0.0094,-0.0176,-0.0185,-0.0193,-0.0254,-0.0224,-0.0228,-0.0231,-0.0365,-0.0366,-0.0368,0,0,0,0,0,0,0.0044,0.0038,-0.0025,-0.0005,-0.0015,-0.0053,-0.0061,-0.0068,-0.0088,-0.0131,-0.0139,-0.0105,-0.0176,-0.0187,-0.024,-0.0257,-0.023,-0.0234,-0.0363,-0.0365,-0.0367,-0.0365,0,0,0,0,0,0,0.0046,0.0039,0.0038,-0.0004,-0.0015,-0.0061,-0.0062,-0.007,-0.0092,-0.0094,-0.0144,-0.0152,-0.0177,-0.0234,-0.0244,-0.0262,-0.0237,-0.0362,-0.0364,-0.0366,-0.0364,-0.0367,-0.0369,0,0,0,0,0,0.0049,0.0045,0.0038,0.0032,-0.0015,-0.0062,-0.0071,-0.0097,-0.0093,-0.0111,-0.0145,-0.0151,-0.0255,-0.0238,-0.025,-0.0269,-0.0361,-0.0363,-0.0366,-0.0362,-0.0366,-0.0369,0,0,0,0,0,0,0.0076,0.004,0.0032,0.0018,-0.002,-0.0066,-0.0081,-0.0097,-0.0138,-0.0138,-0.0171,-0.0183,-0.0236,-0.0256,-0.0236,-0.0317,-0.0307,-0.0312,-0.03,-0.0304,-0.0307,-0.0275,-0.024,0,0,0,0,0,0.0082,0.0069,0.0027,0.0015,-0.0002,-0.0041,-0.0061,-0.0082,-0.0122,-0.0138,-0.0175,-0.0215,-0.0258,-0.0281,-0.0324,-0.0369,-0.0325,-0.0389,-0.0392,-0.0394,-0.0377,-0.031,-0.0303,-0.0377,-0.0376,-0.0376,0,0,0.009,0.0069,0.0062,0.0019,-0.0009,-0.0048,-0.0053,-0.0087,-0.012,-0.0143,-0.0198,-0.0229,-0.0273,-0.0327,-0.0351,-0.0344,-0.0354,-0.0397,-0.0398,-0.038,-0.0311,-0.0303,-0.0296,-0.0378,-0.0378,-0.0378,0,0,0.009,0.0079,0.0062,0.0026,-0.0018,-0.0048,-0.0057,-0.011,-0.0133,-0.019,-0.0213,-0.0248,-0.0322,-0.035,-0.0374,-0.0418,-0.0372,-0.0437,-0.0424,-0.036,-0.0352,-0.0344,-0.0283,-0.0269,-0.0436,-0.0436,-0.0436,0,0.0103,0.0073,0.0048,0.0014,-0.0013,-0.0048,-0.0081,-0.0119,-0.0183,-0.0192,-0.0208,-0.0278,-0.033,-0.0364,-0.0393,-0.0422,-0.0368,-0.0406,-0.0358,-0.035,-0.0341,-0.028,-0.0266,-0.0436,-0.0436,-0.0436,-0.0436,0,0.0078,0.0052,0.0038,-0.0015,-0.0048,-0.0082,-0.0134,-0.0164,-0.019,-0.0216,-0.0249,-0.0302,-0.0323,-0.0366,-0.0404,-0.0387,-0.0362,-0.0366,-0.0337,-0.0333,-0.027,-0.0255,-0.0436,-0.0436,-0.0436,-0.0436,0,0,0.0117,0.0037,0.0033,0.0014,-0.0064,-0.0084,-0.0141,-0.0183,-0.0166,-0.0238,-0.0201,-0.0321,-0.0304,-0.0329,-0.0362,-0.0339,-0.027,-0.0332,-0.0329,-0.0249,-0.0108,-0.013,-0.0115,-0.0246,-0.0244,-0.0242,-0.0087,0,0.0106,0.0056,0.0008,-0.0036,-0.0062,-0.0111,-0.0147,-0.0184,-0.0194,-0.0165,-0.0207,-0.0189,-0.0302,-0.0269,-0.0279,-0.0242,-0.0228,-0.0311,-0.0143,-0.0138,-0.0139,-0.0098,-0.0127,0.0006,-0.0071,-0.0069,-0.0067,0,0.0098,0.0068,0.0025,-0.002,-0.0033,-0.0062,-0.0067,-0.0097,-0.0085,-0.0077,-0.0068,-0.0062,-0.0052,-0.0118,-0.0079,-0.0114,-0.0123,-0.0116,-0.0109,-0.0113,-0.013,-0.0013,0.0037,-0.0193,-0.0043,-0.0045,-0.0046,0,0.0159,0.0087,0.0064,0.004,-0.0024,-0.0032,-0.0049,-0.0058,-0.0015,0.0035,0.0131,0.0099,0.0191,0.0148,0.0117,0.0053,0.0205,0.0128,0.0088,0.0087,0.0102,0.0097,-0.003,0.0157,0.0156,0.0156,0.0155,0,0.0173,0.0161,0.01,0.0092,0.0109,0.004,0.0098,0.0083,0.0151,0.0276,0.022,0.0366,0.0275,0.0337,0.023,0.0235,0.0298,0.0115,0.0135,0.0096,0.0089,-0.008,-0.0185,0.0162,0.016,0.0159,0.0158,0,0.0245,0.0191,0.0187,0.014,0.014,0.0169,0.0221,0.0289,0.0329,0.0522,0.0573,0.0643,0.0721,0.061,0.0609,0.0444,0.0306,0.0377,0.033,0.0337,0.002,-0.0082,-0.0082,-0.0163,0.0355,0.0355,0.0356,0,0.0274,0.0274,0.0264,0.0303,0.029,0.0331,0.038,0.039,0.0503,0.0717,0.0855,0.0979,0.1088,0.1046,0.0796,0.0627,0.041,0.0451,0.0275,0.0017,-0.008,-0.0146,-0.022,0.0303,0.0303,0.0303,0.0303,0,0.036,0.0361,0.0374,0.0447,0.0502,0.0577,0.0664,0.0779,0.0862,0.1031,0.1293,0.1402,0.135,0.1192,0.0914,0.0747,0.0286,0.0443,0.0207,-0.0105,-0.0206,-0.0279,0.0176,0.0303,0.0303,0.0303,0.0303,0.0303,0.0458,0.0507,0.0541,0.0616,0.0693,0.0832,0.0933,0.1065,0.1267,0.1525,0.1604,0.1769,0.1458,0.1086,0.0841,0.0285,0.0312,0.0058,-0.0027,-0.0058,-0.0202,0.0238,0.0352,0.0352,0.0352,0.0352,0.0353,0,0.0585,0.0633,0.0715,0.0814,0.093,0.0934,0.113,0.1251,0.1508,0.1715,0.1902,0.1814,0.1411,0.0955,0.0246,-0.0146,-0.0292,-0.0363,-0.05,-0.0543,-0.012,-0.02,-0.0239,-0.0239,-0.0239,-0.0239,-0.0238,-0.0238,0.0664,0.0769,0.0803,0.1006,0.1084,0.126,0.1382,0.1566,0.1724,0.1962,0.203,0.2053,0.166,0.0418,-0.0465,-0.0657,-0.0921,-0.0931,-0.1054,-0.0853,-0.0823,-0.0795,-0.0901,-0.1087,-0.1088,-0.1465,-0.1469,-0.1473]}],[{"header":{"parameterUnit":"m.s-1","parameterCategory":2,"la1":30.2991,"la2":30.254,"lo1":-89.0895,"lo2":-89.0444,"dy":0.0017,"dx":0.0017,"nx":28,"ny":28,"refTime":"2024-06-01T21:00:00:Z","depth":"2","parameterNumber":2,"parameterNumberName":"U-component_of_CURRENTS"},"data":[0,0,0,0,0,0,0,0,0,0,0,0,0,0,0,0,0,0,0,0,0,0,0,0,0,0,0,0,0,0,0,0,0,0,0,0,0,0,0,0,0,0,0,0,0,0,0,0,0,0,0,0,0,0,0,0,0,0,0.1451,0.1452,0,0.1455,0.1455,0.1454,0.1441,0.1441,0.1441,0.1441,0.1414,0.1413,0.1413,0,0,0,0,0,0,0,0,0,0,0,0,0,0.1418,0.1418,0.1451,0.1452,0.1452,0.1455,0.1455,0.1454,0.1441,0.1441,0.1441,0.1441,0.1414,0.1413,0.1413,0,0,0,0,0,0,0,0,0,0,0,0,0,0.1425,0.1419,0.1451,0.1448,0.1448,0.1455,0.1455,0.1454,0.1441,0.1441,0.1441,0.1441,0.1414,0.1413,0.1412,0.1409,0,0,0.1409,0.1409,0,0,0,0,0,0,0,0,0.1424,0.1426,0.1448,0.1449,0.1449,0.1451,0.1433,0.1439,0.1441,0.144,0.1441,0.1441,0.1426,0.1424,0.142,0.1408,0.1406,0.1409,0.1409,0.1408,0.1408,0,0,0,0,0,0,0,0.1424,0.1425,0.1449,0.1449,0.1449,0.1442,0.1442,0.1434,0.143,0.1441,0.144,0.1446,0.1425,0.1421,0.1419,0.1406,0.1409,0.1409,0.1408,0.1408,0.1387,0.1387,0,0,0,0,0,0,0.1431,0.1425,0.1449,0.145,0.144,0.1443,0.1443,0.1447,0.1431,0.143,0.1446,0.1446,0.1423,0.1421,0.1418,0.1403,0.1408,0.1407,0.1407,0.1387,0.1387,0.1387,0,0,0,0,0,0,0.1431,0.1433,0.1449,0.144,0.1442,0.1444,0.1448,0.1448,0.1448,0.1437,0.1434,0.1449,0.1423,0.142,0.1409,0.1403,0.1407,0.1406,0.1387,0.1387,0.1387,0.1379,0,0,0,0,0,0,0.143,0.1433,0.1437,0.1441,0.1443,0.1459,0.1449,0.1448,0.1453,0.1453,0.1438,0.1435,0.1422,0.141,0.1408,0.1401,0.1405,0.1387,0.1387,0.1387,0.138,0.1379,0.1379,0,0,0,0,0,0.1428,0.1436,0.1438,0.1441,0.1449,0.146,0.146,0.1458,0.1454,0.1457,0.1441,0.1436,0.1409,0.141,0.1407,0.14,0.1387,0.1387,0.1387,0.138,0.1379,0.1379,0,0,0,0,0,0,0.1423,0.1436,0.1437,0.1448,0.1457,0.1459,0.1465,0.1463,0.1454,0.1451,0.1434,0.143,0.1421,0.1414,0.1415,0.1395,0.1398,0.1398,0.1394,0.1393,0.1393,0.1414,0.1405,0,0,0,0,0,0.1426,0.1434,0.1445,0.1454,0.1462,0.1464,0.1468,0.1468,0.1463,0.1459,0.1447,0.1434,0.1419,0.1409,0.1401,0.1388,0.1454,0.1383,0.1383,0.1383,0.1398,0.1493,0.1503,0.1388,0.1388,0.1388,0,0,0.1426,0.1435,0.1439,0.1454,0.146,0.1468,0.1465,0.1476,0.1475,0.1458,0.1449,0.1436,0.1417,0.1402,0.1397,0.1394,0.1455,0.1383,0.1382,0.1399,0.1494,0.1506,0.1516,0.1388,0.1388,0.1388,0,0,0.1432,0.144,0.145,0.1459,0.1475,0.1476,0.1482,0.1487,0.1482,0.1475,0.1459,0.1442,0.1425,0.1404,0.1391,0.1386,0.1455,0.1385,0.1393,0.1483,0.1494,0.1505,0.1631,0.1653,0.1379,0.1379,0.1379,0,0.1431,0.1446,0.1455,0.1467,0.1477,0.1481,0.1493,0.1487,0.1484,0.148,0.1475,0.1453,0.1424,0.1407,0.1395,0.1384,0.1474,0.1392,0.1486,0.1497,0.1508,0.1635,0.166,0.1379,0.1379,0.1379,0.1379,0,0.1448,0.1456,0.1465,0.1479,0.149,0.1502,0.1504,0.15,0.1495,0.149,0.1485,0.1458,0.1456,0.1426,0.1402,0.1446,0.1501,0.1482,0.1491,0.152,0.1652,0.1677,0.1378,0.1378,0.1378,0.1378,0,0,0.1448,0.1472,0.1474,0.1487,0.15,0.1514,0.1505,0.1507,0.1519,0.15,0.1532,0.1464,0.1478,0.1466,0.1444,0.1486,0.1622,0.1518,0.1523,0.1654,0.1883,0.1814,0.1836,0.1638,0.1642,0.1645,0.1955,0,0.1458,0.1486,0.1492,0.1513,0.153,0.1527,0.1529,0.1528,0.1531,0.1563,0.1533,0.1566,0.1488,0.1518,0.1539,0.1616,0.1686,0.1543,0.1828,0.1837,0.1779,0.186,0.1664,0.1914,0.198,0.1985,0.1988,0,0.1474,0.1491,0.152,0.1543,0.1552,0.1568,0.159,0.1593,0.1613,0.1624,0.1638,0.1663,0.171,0.1661,0.181,0.174,0.1817,0.1863,0.1877,0.1832,0.1814,0.189,0.1959,0.2031,0.2028,0.2024,0.2022,0,0.1485,0.151,0.1538,0.1546,0.1571,0.1587,0.1602,0.1615,0.1649,0.1706,0.1778,0.1807,0.1908,0.1968,0.2034,0.1973,0.2233,0.2167,0.218,0.2179,0.2074,0.2056,0.2301,0.2301,0.23,0.2299,0.2298,0,0.149,0.1512,0.1554,0.157,0.1615,0.1625,0.1678,0.1685,0.1754,0.1826,0.1844,0.1944,0.2002,0.2133,0.2143,0.2257,0.2339,0.2221,0.2255,0.2066,0.2043,0.2173,0.2154,0.2311,0.2308,0.2306,0.2304,0,0.1492,0.1515,0.1561,0.1606,0.1624,0.1667,0.1744,0.1785,0.1852,0.197,0.2024,0.2146,0.2305,0.235,0.2504,0.2442,0.2519,0.2535,0.232,0.2318,0.2389,0.2366,0.2614,0.2614,0.2614,0.2615,0.2615,0,0.1496,0.1519,0.1596,0.1641,0.167,0.1731,0.1771,0.1825,0.1892,0.2077,0.216,0.2366,0.2434,0.2625,0.2592,0.2646,0.2633,0.2487,0.2278,0.2414,0.2423,0.24,0.2377,0.2176,0.2173,0.217,0.2168,0,0.1502,0.1541,0.1578,0.1666,0.1731,0.1788,0.1867,0.193,0.2016,0.2126,0.2292,0.2371,0.2545,0.2492,0.2543,0.2516,0.244,0.2428,0.2692,0.2082,0.2013,0.2017,0.2008,0.2142,0.2145,0.2146,0.2148,0.2149,0.1515,0.1549,0.1604,0.1678,0.1756,0.1816,0.1835,0.1923,0.2004,0.209,0.2263,0.2281,0.2329,0.2274,0.2258,0.2245,0.2374,0.2234,0.2239,0.2248,0.2097,0.2026,0.2135,0.2137,0.2139,0.2141,0.2143,0,0.1494,0.1536,0.1609,0.1679,0.172,0.1785,0.1867,0.1842,0.1884,0.1974,0.2047,0.1887,0.1884,0.1943,0.1891,0.1904,0.184,0.1827,0.1721,0.1749,0.1774,0.1591,0.15,0.1498,0.1496,0.1494,0,0,0.1485,0.1513,0.1533,0.1584,0.1654,0.1669,0.169,0.1667,0.1694,0.1622,0.1601,0.1722,0.1842,0.161,0.1626,0.1562,0.1627,0.1502,0.2021,0.1923,0.1944,0.2022,0.1776,0,0,0,0,0]},{"header":{"parameterUnit":"m.s-1","parameterCategory":2,"la1":30.2991,"la2":30.254,"lo1":-89.0895,"lo2":-89.0444,"dy":0.0017,"dx":0.0017,"nx":28,"ny":28,"refTime":"2024-06-01T21:00:00:Z","depth":"2","parameterNumber":3,"parameterNumberName":"V-component_of_CURRENTS"},"data":[0,0,0,0,0,0,0,0,0,0,0,0,0,0,0,0,0,0,0,0,0,0,0,0,0,0,0,0,0,0,0,0,0,0,0,0,0,0,0,0,0,0,0,0,0,0,0,0,0,0,0,0,0,0,0,0,0,0,-0.0243,-0.0244,0,-0.0313,-0.0314,-0.0315,-0.0335,-0.0335,-0.0334,-0.0334,-0.0423,-0.0426,-0.0429,0,0,0,0,0,0,0,0,0,0,0,0,0,-0.0181,-0.0182,-0.0243,-0.0244,-0.0244,-0.0313,-0.0314,-0.0315,-0.0335,-0.0335,-0.0334,-0.0333,-0.0422,-0.0426,-0.0429,0,0,0,0,0,0,0,0,0,0,0,0,0,-0.0226,-0.0182,-0.0243,-0.0262,-0.0264,-0.0313,-0.0314,-0.0316,-0.0335,-0.0335,-0.0334,-0.0333,-0.0421,-0.0425,-0.043,-0.0471,0,0,-0.0443,-0.0444,0,0,0,0,0,0,0,0,-0.0224,-0.0229,-0.0258,-0.026,-0.0263,-0.0314,-0.0325,-0.0368,-0.0336,-0.031,-0.0334,-0.0333,-0.0388,-0.0395,-0.0411,-0.0475,-0.0479,-0.0443,-0.0446,-0.0447,-0.0449,0,0,0,0,0,0,0,-0.022,-0.0226,-0.0272,-0.0259,-0.0262,-0.0285,-0.0291,-0.0334,-0.0354,-0.0312,-0.0313,-0.0319,-0.039,-0.0407,-0.0414,-0.048,-0.0443,-0.0447,-0.0449,-0.0451,-0.0615,-0.0616,0,0,0,0,0,0,-0.0207,-0.0223,-0.027,-0.0274,-0.024,-0.0287,-0.0293,-0.0299,-0.0353,-0.036,-0.032,-0.032,-0.04,-0.0409,-0.0417,-0.0469,-0.0447,-0.0451,-0.0454,-0.0613,-0.0615,-0.0617,0,0,0,0,0,0,-0.0206,-0.0211,-0.0267,-0.0249,-0.0258,-0.0288,-0.0296,-0.0301,-0.0315,-0.0358,-0.0366,-0.0328,-0.04,-0.0411,-0.0466,-0.0472,-0.0453,-0.0457,-0.0611,-0.0613,-0.0616,-0.0573,0,0,0,0,0,0,-0.0204,-0.021,-0.0211,-0.0248,-0.0258,-0.0303,-0.0296,-0.0303,-0.032,-0.032,-0.0368,-0.0375,-0.04,-0.046,-0.0471,-0.0478,-0.0461,-0.0608,-0.0612,-0.0615,-0.0573,-0.0574,-0.0576,0,0,0,0,0,-0.0201,-0.0206,-0.021,-0.0216,-0.0258,-0.0304,-0.0312,-0.0332,-0.0321,-0.0339,-0.0371,-0.0374,-0.0489,-0.0465,-0.0477,-0.0486,-0.0607,-0.0611,-0.0615,-0.0572,-0.0574,-0.0576,0,0,0,0,0,0,-0.0181,-0.021,-0.0215,-0.0229,-0.0266,-0.0307,-0.032,-0.0331,-0.037,-0.0366,-0.0398,-0.041,-0.0463,-0.049,-0.0463,-0.0548,-0.0548,-0.0555,-0.0512,-0.0514,-0.0516,-0.0475,-0.0464,0,0,0,0,0,-0.0176,-0.0187,-0.0225,-0.0237,-0.0252,-0.0284,-0.0302,-0.0319,-0.0356,-0.0371,-0.0405,-0.0447,-0.0492,-0.0512,-0.0564,-0.0606,-0.0596,-0.0624,-0.0625,-0.0626,-0.0605,-0.0589,-0.0585,-0.063,-0.063,-0.063,0,0,-0.0171,-0.0188,-0.0194,-0.0233,-0.0258,-0.0299,-0.0294,-0.0324,-0.0353,-0.0377,-0.0424,-0.0459,-0.0509,-0.056,-0.0585,-0.0578,-0.0615,-0.0631,-0.0631,-0.0609,-0.0592,-0.0587,-0.0582,-0.0633,-0.0632,-0.0632,0,0,-0.0183,-0.0182,-0.0205,-0.0238,-0.0278,-0.0302,-0.0309,-0.0355,-0.0366,-0.0427,-0.0442,-0.0469,-0.056,-0.0572,-0.0596,-0.0638,-0.0629,-0.0669,-0.0633,-0.0617,-0.0611,-0.0606,-0.0601,-0.0596,-0.0661,-0.0661,-0.0661,0,-0.0174,-0.0209,-0.0221,-0.0261,-0.0276,-0.0303,-0.0334,-0.0365,-0.0424,-0.0416,-0.0445,-0.0518,-0.0561,-0.0576,-0.0597,-0.0635,-0.063,-0.0613,-0.0612,-0.0607,-0.0602,-0.0598,-0.0592,-0.0659,-0.066,-0.066,-0.066,0,-0.0215,-0.0245,-0.026,-0.0312,-0.0331,-0.0363,-0.0397,-0.0412,-0.0428,-0.0449,-0.0471,-0.0523,-0.0546,-0.0578,-0.0607,-0.0594,-0.0604,-0.0616,-0.059,-0.0594,-0.0591,-0.0586,-0.0657,-0.0658,-0.0658,-0.0659,0,0,-0.0183,-0.0271,-0.0275,-0.029,-0.0352,-0.036,-0.0395,-0.0411,-0.0388,-0.0457,-0.0426,-0.0511,-0.0499,-0.0523,-0.0544,-0.0538,-0.0517,-0.056,-0.056,-0.0524,-0.0485,-0.0543,-0.0543,-0.0521,-0.052,-0.0519,-0.0499,0,-0.0209,-0.0278,-0.0309,-0.035,-0.0379,-0.0388,-0.0405,-0.0413,-0.042,-0.0405,-0.0424,-0.043,-0.0491,-0.0476,-0.0484,-0.05,-0.05,-0.0521,-0.0513,-0.0513,-0.0537,-0.0537,-0.0506,-0.049,-0.0494,-0.0493,-0.0493,0,-0.0234,-0.0272,-0.0323,-0.0337,-0.0341,-0.0356,-0.0312,-0.0332,-0.032,-0.032,-0.0314,-0.033,-0.0326,-0.0378,-0.0395,-0.0404,-0.0442,-0.0465,-0.0465,-0.0521,-0.056,-0.0489,-0.048,-0.0484,-0.0485,-0.0485,-0.0486,0,-0.0198,-0.026,-0.0284,-0.0303,-0.0344,-0.0316,-0.0307,-0.0291,-0.0264,-0.0236,-0.0194,-0.0223,-0.0187,-0.0252,-0.033,-0.0347,-0.0351,-0.0377,-0.0466,-0.0471,-0.0444,-0.0449,-0.0386,-0.0386,-0.0386,-0.0386,-0.0386,0,-0.0216,-0.0225,-0.0257,-0.0281,-0.0234,-0.0262,-0.0197,-0.0187,-0.0155,-0.0101,-0.0125,-0.0077,-0.0148,-0.0171,-0.0279,-0.0359,-0.0313,-0.0449,-0.0464,-0.0436,-0.044,-0.0435,-0.0441,-0.0385,-0.0386,-0.0386,-0.0386,0,-0.0194,-0.024,-0.0247,-0.0258,-0.0234,-0.0187,-0.0122,-0.0075,-0.0048,0.0033,0.0052,0.0068,0.0032,-0.0074,-0.0154,-0.0259,-0.036,-0.0405,-0.038,-0.0394,-0.05,-0.0505,-0.0479,-0.0481,-0.0482,-0.0483,-0.0484,0,-0.0191,-0.0218,-0.0202,-0.0165,-0.0162,-0.0095,-0.0044,-0.0022,0.0038,0.0112,0.0169,0.0172,0.0138,-0.0006,-0.0159,-0.034,-0.0375,-0.043,-0.047,-0.049,-0.0507,-0.0509,-0.0511,-0.0417,-0.0417,-0.0417,-0.0418,0,-0.0184,-0.0185,-0.0179,-0.0117,-0.0051,0.0014,0.0095,0.0147,0.0184,0.0225,0.0267,0.0234,0.0152,0.0001,-0.0212,-0.034,-0.0408,-0.0445,-0.0434,-0.042,-0.0436,-0.0452,-0.0454,-0.042,-0.042,-0.042,-0.042,-0.042,-0.0134,-0.0119,-0.0116,-0.0046,0.0037,0.0108,0.0149,0.0217,0.0261,0.0353,0.0341,0.0345,0.0208,-0.0037,-0.0249,-0.0425,-0.0433,-0.0505,-0.0501,-0.0497,-0.0515,-0.0535,-0.0541,-0.0542,-0.0542,-0.0542,-0.0543,0,-0.0092,-0.0093,-0.0043,0.0019,0.0092,0.0137,0.0232,0.0267,0.03,0.0423,0.0441,0.0339,0.0167,0.0002,-0.0259,-0.0466,-0.0459,-0.0531,-0.0468,-0.0465,-0.0462,-0.0476,-0.0493,-0.0493,-0.0493,-0.0494,0,0,-0.0073,-0.0061,-0.0069,0.0028,0.0107,0.0195,0.0239,0.0298,0.0387,0.0466,0.0526,0.0576,0.0302,0.0135,-0.0141,-0.0308,-0.0339,-0.0345,-0.0367,-0.0259,-0.0253,-0.0434,-0.0452,0,0,0,0,0]}],[{"header":{"parameterUnit":"m.s-1","parameterCategory":2,"la1":30.2991,"la2":30.254,"lo1":-89.0895,"lo2":-89.0444,"dy":0.0017,"dx":0.0017,"nx":28,"ny":28,"refTime":"2024-06-01T21:00:00:Z","depth":"4","parameterNumber":2,"parameterNumberName":"U-component_of_CURRENTS"},"data":[0,0,0,0,0,0,0,0,0,0,0,0,0,0,0,0,0,0,0,0,0,0,0,0,0,0,0,0,0,0,0,0,0,0,0,0,0,0,0,0,0,0,0,0,0,0,0,0,0,0,0,0,0,0,0,0,0,0,0.079,0.0791,0,0.0838,0.0838,0.0839,0.0889,0.0889,0.089,0.0891,0.0973,0.0974,0.0976,0,0,0,0,0,0,0,0,0,0,0,0,0,0.0752,0.0753,0.079,0.0791,0.0791,0.0838,0.0838,0.0839,0.0889,0.0889,0.089,0.0891,0.0972,0.0974,0.0976,0,0,0,0,0,0,0,0,0,0,0,0,0,0.0782,0.0753,0.079,0.0821,0.0824,0.0837,0.0838,0.0839,0.0889,0.0889,0.089,0.0891,0.0971,0.0974,0.0976,0.0974,0,0,0.0984,0.0985,0,0,0,0,0,0,0,0,0.0781,0.0784,0.0816,0.0818,0.0822,0.0857,0.0855,0.0886,0.0888,0.0865,0.0891,0.0892,0.0936,0.0941,0.095,0.0978,0.0982,0.0984,0.0986,0.0987,0.0987,0,0,0,0,0,0,0,0.0778,0.0782,0.081,0.0816,0.082,0.0835,0.084,0.0861,0.0897,0.0867,0.0871,0.0874,0.0938,0.0947,0.0952,0.0983,0.0984,0.0986,0.0988,0.0989,0.109,0.1091,0,0,0,0,0,0,0.0769,0.078,0.0809,0.0812,0.0802,0.0835,0.0841,0.0846,0.0896,0.0904,0.0873,0.0876,0.0942,0.0949,0.0955,0.1025,0.0987,0.0989,0.099,0.1088,0.109,0.1091,0,0,0,0,0,0,0.0768,0.0771,0.0807,0.0796,0.0801,0.0835,0.084,0.0846,0.0875,0.0899,0.0908,0.0897,0.0943,0.0952,0.0996,0.1026,0.099,0.0992,0.1087,0.1089,0.109,0.1119,0,0,0,0,0,0,0.0766,0.077,0.0779,0.0795,0.0802,0.0824,0.0839,0.0847,0.0874,0.0879,0.0923,0.093,0.0945,0.0992,0.0998,0.1028,0.0994,0.1085,0.1088,0.109,0.1117,0.1122,0.1126,0,0,0,0,0,0.0765,0.0768,0.0779,0.0783,0.081,0.0824,0.0829,0.0856,0.0874,0.0886,0.0923,0.093,0.1011,0.0995,0.1002,0.1033,0.1084,0.1087,0.109,0.1115,0.1121,0.1126,0,0,0,0,0,0,0.0756,0.0774,0.0786,0.0796,0.0813,0.0832,0.0845,0.0864,0.0902,0.0917,0.0942,0.0952,0.1003,0.1012,0.0993,0.1069,0.105,0.1054,0.1066,0.1072,0.1077,0.1106,0.0996,0,0,0,0,0,0.0757,0.0764,0.0784,0.0791,0.0802,0.0828,0.0841,0.0862,0.0891,0.0909,0.0943,0.0981,0.1015,0.1038,0.1067,0.1104,0.1107,0.1131,0.1135,0.1139,0.1168,0.1192,0.1201,0.11,0.11,0.11,0,0,0.0755,0.0764,0.077,0.079,0.0807,0.0822,0.0839,0.0864,0.089,0.0912,0.0967,0.0999,0.1028,0.1076,0.11,0.1091,0.1162,0.1143,0.1146,0.1173,0.1196,0.1205,0.1214,0.1102,0.1101,0.1101,0,0,0.0742,0.0765,0.0766,0.0777,0.0804,0.0829,0.0839,0.0876,0.091,0.0958,0.0987,0.1041,0.1085,0.1122,0.1142,0.1189,0.1184,0.1197,0.1249,0.127,0.1279,0.1286,0.1268,0.1274,0.1201,0.1201,0.1201,0,0.0743,0.0742,0.0769,0.0768,0.0784,0.0832,0.0844,0.0881,0.0933,0.0969,0.0981,0.1083,0.111,0.1176,0.1208,0.1202,0.1202,0.1221,0.1276,0.1284,0.1291,0.1271,0.1278,0.1202,0.1202,0.1202,0.1202,0,0.0721,0.0729,0.073,0.0753,0.078,0.0794,0.0848,0.09,0.0954,0.099,0.1078,0.1129,0.1205,0.121,0.1233,0.1308,0.1284,0.1274,0.126,0.1303,0.1279,0.1285,0.1205,0.1204,0.1204,0.1203,0,0,0.0694,0.0714,0.0711,0.0726,0.0774,0.0795,0.0859,0.0926,0.098,0.105,0.1122,0.1206,0.1267,0.1298,0.1334,0.1359,0.1406,0.1358,0.1358,0.1337,0.1433,0.1385,0.1386,0.1408,0.1411,0.1412,0.1382,0,0.067,0.0661,0.0689,0.0711,0.0722,0.0796,0.0848,0.0923,0.1003,0.1087,0.1167,0.1245,0.1289,0.1346,0.1392,0.1413,0.143,0.1414,0.1399,0.1399,0.1348,0.1395,0.1419,0.1386,0.1388,0.1389,0.139,0,0.0629,0.0636,0.0645,0.0701,0.0716,0.076,0.0877,0.0937,0.1062,0.1121,0.1238,0.13,0.1411,0.1416,0.1497,0.149,0.1489,0.1475,0.1473,0.1433,0.1364,0.1344,0.14,0.1399,0.1399,0.1398,0.1397,0,0.0581,0.0605,0.0618,0.0629,0.0705,0.0764,0.0842,0.0961,0.104,0.1176,0.1236,0.1357,0.1444,0.1477,0.1526,0.1517,0.1562,0.1529,0.1466,0.1459,0.1496,0.1488,0.1562,0.1562,0.1562,0.1562,0.1562,0,0.0529,0.0539,0.0608,0.0614,0.0674,0.0755,0.0865,0.0944,0.1091,0.1167,0.1286,0.1358,0.1471,0.1524,0.1533,0.1541,0.1579,0.1496,0.1467,0.1502,0.1496,0.1497,0.149,0.1561,0.1561,0.1561,0.1562,0,0.0467,0.0495,0.052,0.0608,0.0651,0.0712,0.0891,0.0959,0.1098,0.1211,0.126,0.1397,0.1465,0.1527,0.1565,0.1548,0.1535,0.1512,0.1539,0.1507,0.1402,0.1397,0.1432,0.1431,0.1429,0.1428,0.1427,0,0.0436,0.0432,0.0513,0.0551,0.0607,0.0726,0.0796,0.0955,0.1023,0.1209,0.1228,0.1363,0.1436,0.1447,0.1518,0.152,0.1508,0.1476,0.1465,0.143,0.1398,0.1395,0.1392,0.1425,0.1425,0.1425,0.1424,0,0.0379,0.0405,0.0429,0.0505,0.058,0.066,0.078,0.0824,0.0985,0.1111,0.1192,0.1268,0.1342,0.1404,0.1436,0.1427,0.149,0.1462,0.1464,0.1453,0.1422,0.1391,0.1389,0.142,0.142,0.1421,0.1421,0,0.0344,0.0342,0.038,0.0447,0.0526,0.0572,0.0652,0.0744,0.084,0.1031,0.105,0.1187,0.1313,0.1354,0.1369,0.139,0.137,0.1313,0.1323,0.1329,0.1321,0.1268,0.1212,0,0,0,0,0,0.0307,0.0289,0.0332,0.038,0.0457,0.0512,0.0616,0.0694,0.0828,0.0854,0.097,0.1034,0.1141,0.1211,0.1214,0.1314,0.1354,0.1311,0.1288,0.1394,0.14,0.1406,0,0,0,0,0,0,0.0275,0.0285,0.0292,0.0319,0.0354,0.0422,0.0483,0.0575,0.0608,0.0762,0.0819,0.0965,0.1068,0.1126,0.119,0.1214,0.1178,0.1411,0.1409,0.1391,0.1396,0.14,0.1409,0,0,0,0,0]},{"header":{"parameterUnit":"m.s-1","parameterCategory":2,"la1":30.2991,"la2":30.254,"lo1":-89.0895,"lo2":-89.0444,"dy":0.0017,"dx":0.0017,"nx":28,"ny":28,"refTime":"2024-06-01T21:00:00:Z","depth":"4","parameterNumber":3,"parameterNumberName":"V-component_of_CURRENTS"},"data":[0,0,0,0,0,0,0,0,0,0,0,0,0,0,0,0,0,0,0,0,0,0,0,0,0,0,0,0,0,0,0,0,0,0,0,0,0,0,0,0,0,0,0,0,0,0,0,0,0,0,0,0,0,0,0,0,0,0,0.0011,0.0012,0,0.0054,0.0054,0.0054,0.0038,0.0037,0.0036,0.0035,0.0036,0.0037,0.0037,0,0,0,0,0,0,0,0,0,0,0,0,0,-0.005,-0.0049,0.0011,0.0012,0.0012,0.0053,0.0054,0.0055,0.0038,0.0037,0.0036,0.0035,0.0035,0.0036,0.0037,0,0,0,0,0,0,0,0,0,0,0,0,0,-0.0018,-0.0048,0.0011,0.001,0.001,0.0053,0.0054,0.0055,0.0038,0.0037,0.0035,0.0034,0.0035,0.0036,0.0038,0.0073,0,0,0.0042,0.0042,0,0,0,0,0,0,0,0,-0.002,-0.0016,0.0009,0.001,0.001,0.004,0.0033,0.0059,0.0039,0.0027,0.0035,0.0033,0.0035,0.0036,0.0046,0.0073,0.0073,0.0042,0.0043,0.0043,0.0043,0,0,0,0,0,0,0,-0.0022,-0.0017,0.0027,0.001,0.0011,0.0019,0.0021,0.0038,0.0036,0.0028,0.0027,0.0033,0.0034,0.0045,0.0046,0.0073,0.0042,0.0043,0.0044,0.0044,0.0137,0.0139,0,0,0,0,0,0,-0.0025,-0.0019,0.0026,0.0028,-0.0007,0.0021,0.0024,0.0031,0.0037,0.0037,0.0034,0.0032,0.0044,0.0045,0.0046,0.0093,0.0043,0.0044,0.0045,0.0136,0.0138,0.0139,0,0,0,0,0,0,-0.0027,-0.0022,0.0024,0.0006,0.0012,0.0023,0.0032,0.0033,0.0041,0.0043,0.0042,0.0041,0.0043,0.0044,0.0073,0.0092,0.0045,0.0046,0.0134,0.0136,0.0139,0.0183,0,0,0,0,0,0,-0.0029,-0.0022,-0.0019,0.0006,0.0013,0.0062,0.0033,0.0034,0.0048,0.0045,0.0049,0.0048,0.0042,0.0072,0.0075,0.0093,0.0047,0.0131,0.0135,0.0138,0.018,0.0187,0.0193,0,0,0,0,0,-0.0031,-0.001,-0.0019,-0.0014,0.0018,0.0063,0.0069,0.0071,0.005,0.0069,0.007,0.0047,0.0093,0.0075,0.0078,0.0097,0.013,0.0134,0.0137,0.0177,0.0186,0.0193,0,0,0,0,0,0,-0.0036,-0.0009,-0.0019,0.0007,0.0034,0.0061,0.0081,0.0076,0.0093,0.0085,0.0074,0.0075,0.0107,0.0103,0.0082,0.0135,0.0106,0.0111,0.0135,0.0144,0.015,0.011,0.0048,0,0,0,0,0,-0.0035,-0.0013,0.0011,0.0033,0.0047,0.0061,0.0077,0.0081,0.0099,0.0104,0.0107,0.0113,0.0128,0.0135,0.0151,0.0183,0.0129,0.0198,0.0205,0.021,0.0182,0.0108,0.0103,0.0152,0.0152,0.0152,0,0,-0.0035,-0.0013,-0.0005,0.0034,0.0052,0.0098,0.0068,0.0103,0.0132,0.0103,0.0143,0.014,0.0144,0.0179,0.0192,0.0175,0.0179,0.0215,0.022,0.0187,0.0111,0.0105,0.01,0.0154,0.0154,0.0154,0,0,0.0007,0.0002,0.0044,0.0074,0.0112,0.0124,0.0134,0.0165,0.0167,0.0211,0.019,0.0189,0.0234,0.0222,0.0225,0.0279,0.0219,0.0299,0.0297,0.0227,0.0221,0.0214,0.0174,0.0163,0.03,0.03,0.03,0,0.0005,0.006,0.0064,0.0122,0.0144,0.0139,0.0188,0.0205,0.0239,0.0227,0.0232,0.024,0.0248,0.0247,0.027,0.029,0.0246,0.0265,0.0231,0.0223,0.0216,0.0175,0.0163,0.0302,0.0302,0.0302,0.0302,0,0.0086,0.0128,0.016,0.0222,0.0247,0.0291,0.0308,0.0319,0.0314,0.0311,0.0307,0.0307,0.0285,0.0311,0.0311,0.0274,0.0261,0.0247,0.0198,0.0212,0.0171,0.0157,0.0306,0.0305,0.0304,0.0304,0,0,0.0083,0.0193,0.0204,0.0235,0.0297,0.0318,0.0359,0.0371,0.0353,0.0375,0.0344,0.0371,0.0316,0.0313,0.0299,0.0254,0.0191,0.023,0.0225,0.017,0.0046,0.0056,0.0041,0.0161,0.0159,0.0156,0.0049,0,0.0142,0.0259,0.0293,0.0373,0.0421,0.0416,0.0442,0.0441,0.0424,0.0396,0.0356,0.0334,0.0335,0.0304,0.0259,0.0201,0.0151,0.0222,0.0056,0.0052,0.004,0.0024,0.0147,0.0039,0.0035,0.0033,0.0031,0,0.0207,0.0274,0.0374,0.0421,0.0434,0.0471,0.0449,0.0471,0.0426,0.0401,0.0346,0.0302,0.0238,0.0233,0.0109,0.0151,0.0091,0.0053,0.0048,0.0017,0.0033,0.0015,0.0005,0.0007,0.0009,0.0011,0.0013,0,0.02,0.0311,0.0383,0.0413,0.0478,0.0483,0.0491,0.0464,0.0448,0.0378,0.034,0.0254,0.0197,0.0106,0.003,0.005,-0.0108,-0.0093,-0.0138,-0.0137,-0.0135,-0.0128,-0.0205,-0.0205,-0.0205,-0.0205,-0.0204,0,0.0245,0.0292,0.0382,0.0425,0.0447,0.0481,0.047,0.0454,0.0417,0.0388,0.0323,0.027,0.0154,0.0061,-0.0003,-0.0115,-0.0147,-0.0162,-0.018,-0.0103,-0.0092,-0.0143,-0.0135,-0.0209,-0.0208,-0.0207,-0.0206,0,0.0233,0.0309,0.0377,0.0448,0.0458,0.0463,0.0467,0.0448,0.0418,0.0374,0.0345,0.025,0.0129,0.0028,-0.0122,-0.016,-0.0262,-0.0293,-0.0197,-0.0203,-0.0232,-0.0219,-0.0367,-0.0368,-0.0368,-0.0369,-0.037,0,0.0242,0.0291,0.0377,0.0394,0.0429,0.0442,0.0444,0.044,0.0428,0.037,0.0348,0.022,0.0151,-0.0045,-0.0152,-0.03,-0.0306,-0.0357,-0.0304,-0.0254,-0.0257,-0.0242,-0.0229,-0.0371,-0.0371,-0.0371,-0.0372,0,0.0238,0.0274,0.033,0.038,0.04,0.042,0.0435,0.0421,0.0416,0.0389,0.0332,0.0229,0.0094,-0.0046,-0.0173,-0.0267,-0.0324,-0.0365,-0.0363,-0.0314,-0.0261,-0.0259,-0.0245,-0.0374,-0.0374,-0.0374,-0.0373,0,0.021,0.0235,0.0313,0.0343,0.0377,0.0405,0.0409,0.0412,0.0403,0.0365,0.0343,0.0216,0.0137,-0.0031,-0.0139,-0.0247,-0.0259,-0.0267,-0.027,-0.0269,-0.02,-0.0115,-0.0223,0,0,0,0,0,0.0174,0.021,0.0259,0.0314,0.0356,0.0381,0.0408,0.0416,0.0414,0.0381,0.037,0.0257,0.0085,0.0002,-0.0105,-0.0161,-0.0288,-0.0289,-0.0301,-0.0389,-0.0386,-0.032,0,0,0,0,0,0,0.0151,0.02,0.0254,0.0297,0.0322,0.0371,0.0393,0.0396,0.0384,0.0367,0.0273,0.0241,0.0064,0.0142,-0.0107,-0.0142,-0.0159,-0.0371,-0.0372,-0.0391,-0.0388,-0.0386,-0.0317,0,0,0,0,0]}]]